Location: Gro�wechsungen
(51.4926°N, 10.6901°E)
Time: 15:35:58
(UTC+00:00)

NOSS 3-2 (A) - Visible Passes

Search period start: 30 November 2021 00:00
Search period end: 10 December 2021 00:00
Orbit: 771 x 1437 km, 63.4° (Epoch: 21 November)

Date Brightness Start Highest point End Pass type
(mag) Time Alt. Az. Time Alt. Az. Time Alt. Az.
30 Nov 5.2 03:02:53 19° SE 03:05:03 24° ESE 03:09:54 10° ENE visible
30 Nov 3.3 04:50:20 16° SW 04:55:01 83° NW 05:01:46 10° NE visible
01 Dec 5.8 02:19:45 14° ESE 02:20:12 15° ESE 02:23:20 10° ENE visible
01 Dec 3.5 04:07:12 36° SSW 04:09:37 70° SE 04:16:11 10° NE visible
01 Dec 4.0 05:55:16 10° W 06:00:56 42° NNW 06:07:34 10° NE visible
02 Dec 4.1 03:23:52 46° SE 03:24:22 47° ESE 03:30:32 10° NE visible
02 Dec 3.7 05:11:18 21° WSW 05:15:11 53° NNW 05:21:55 10° NE visible
03 Dec 5.0 02:40:25 28° E 02:40:25 28° E 02:44:43 10° ENE visible
03 Dec 3.3 04:27:50 47° WSW 04:29:33 70° NW 04:36:20 10° NE visible
03 Dec 4.4 06:15:58 10° WNW 06:21:34 33° NNW 06:28:02 10° NE visible
04 Dec 5.9 01:56:50 15° E 01:56:50 15° E 01:58:33 10° ENE visible
04 Dec 3.3 03:44:15 83° E 03:44:15 83° E 03:50:46 10° NE visible
04 Dec 4.2 05:31:40 19° W 05:35:39 38° NNW 05:42:13 10° NE visible
05 Dec 4.4 03:00:35 42° ENE 03:00:35 42° ENE 03:05:09 10° NE visible
05 Dec 3.8 04:48:00 37° WNW 04:49:50 46° NNW 04:56:31 10° NE visible
06 Dec 5.5 02:16:52 22° ENE 02:16:52 22° ENE 02:19:26 10° NE visible
06 Dec 3.5 04:04:16 60° NNW 04:04:16 60° NNW 04:10:55 10° NE visible
06 Dec 4.5 05:51:40 14° WNW 05:56:21 32° N 06:02:47 10° NE visible
07 Dec 6.2 01:33:04 11° ENE 01:33:04 11° ENE 01:33:30 10° ENE visible
07 Dec 4.2 03:20:29 48° NE 03:20:29 48° NE 03:25:20 10° NE visible
07 Dec 4.3 05:07:52 26° WNW 05:10:24 35° NNW 05:16:53 10° NE visible
08 Dec 5.1 02:36:39 28° NE 02:36:39 28° NE 02:39:45 10° NE visible
08 Dec 4.0 04:24:02 41° NW 04:24:32 42° NNW 04:31:09 10° NE visible
08 Dec 4.7 06:11:26 10° WNW 06:17:08 31° N 06:23:43 10° ENE visible
09 Dec 5.9 01:52:46 16° NE 01:52:46 16° NE 01:54:06 10° NE visible
09 Dec 4.2 03:40:10 44° N 03:40:10 44° N 03:45:30 10° NE visible
09 Dec 4.7 05:27:33 19° NW 05:31:08 31° N 05:37:36 10° NE visible
